KD8DNS Weather Reports


time (UTC)temp
F
wind
direction
speed
knots
gust
knots
rain 1hr
in
rain 24hr
in
rain mn
in
humidity
%
barometer
mb
20260903060114 74 12 0.0 0.0 0.00 0.00 0.00 93 1019.5
20260903055611 74 12 0.0 0.0 0.00 0.00 0.00 93 1019.6
20260903055109 74 12 0.0 0.0 0.00 0.00 0.00 92 1019.5
20260903054604 74 12 0.0 0.0 0.00 0.00 0.00 92 1019.5
20260903054100 74 12 0.0 0.0 0.00 0.00 0.00 92 1019.3
20260903053555 74 12 0.0 0.0 0.00 0.00 0.00 92 1019.5
20260903053052 75 12 0.0 0.0 0.00 0.00 0.00 92 1019.3
20260903052548 75 12 0.0 0.0 0.00 0.00 0.00 92 1019.4
20260903052043 75 12 0.0 0.0 0.00 0.00 0.00 92 1019.5
20260903051543 75 12 0.0 0.0 0.00 0.00 0.00 91 1019.5
20260903051038 75 11 0.0 0.0 0.00 0.00 0.00 91 1019.4
20260903050537 75 12 0.0 0.0 0.00 0.00 0.00 91 1019.4
20260903050033 75 11 0.0 0.0 0.00 0.00 0.00 91 1019.1
20260903045532 75 11 0.0 0.0 0.00 0.00 0.00 91 1019.3
20260903045029 75 11 0.0 0.0 0.00 0.00 0.00 91 1019.3
20260903044525 75 11 0.0 0.0 0.00 0.00 0.00 90 1019.2
20260903044020 75 11 0.0 0.0 0.00 0.00 0.00 90 1019.1
20260903043516 75 11 0.0 0.0 0.00 0.00 0.00 90 1019.1
20260903043015 75 13 0.0 0.0 0.00 0.00 0.00 90 1019.2
20260903042510 76 13 0.0 0.0 0.00 0.00 0.00 90 1019.1
20260903042006 76 13 0.0 0.0 0.00 0.00 0.00 90 1019.0
20260903041502 76 13 0.0 0.0 0.00 0.00 0.00 90 1019.2
20260903040957 76 13 0.0 0.0 0.00 0.00 0.00 90 1019.2
20260903040456 76 13 0.0 0.0 0.00 0.00 0.00 89 1019.2
20260903035953 76 13 0.0 0.0 0.00 0.00 0.00 89 1019.0
20260903035448 76 13 0.0 0.0 0.00 0.00 0.00 89 1019.0
20260903034943 76 13 0.0 0.0 0.00 0.00 0.00 89 1019.0
20260903034438 76 12 0.0 0.0 0.00 0.00 0.00 89 1019.3
20260903033933 77 12 0.0 0.0 0.00 0.00 0.00 89 1019.3
20260903033428 77 12 0.0 0.0 0.00 0.00 0.00 89 1019.3
20260903032923 77 12 0.0 0.0 0.00 0.00 0.00 89 1019.2
20260903032419 77 12 0.0 0.0 0.00 0.00 0.00 88 1019.1
20260903031914 77 12 0.0 0.0 0.00 0.00 0.00 87 1019.5
20260903031414 77 12 0.0 0.0 0.00 0.00 0.00 87 1019.5
20260903030909 77 12 0.0 0.0 0.00 0.00 0.00 87 1019.4
20260903030405 77 12 0.0 0.0 0.00 0.00 0.00 87 1019.4
20260903025901 77 12 0.0 0.0 0.00 0.00 0.00 86 1019.6
20260903025356 78 12 0.0 0.0 0.00 0.00 0.00 86 1019.6
20260903024856 78 12 0.0 0.0 0.00 0.00 0.00 86 1019.6
20260903024350 78 12 0.0 0.0 0.00 0.00 0.00 86 1019.7
20260903023845 78 12 0.0 0.0 0.00 0.00 0.00 86 1019.7
20260903023341 78 12 0.0 0.0 0.00 0.00 0.00 85 1019.6
20260903022836 79 15 0.0 0.0 0.00 0.00 0.00 85 1019.5
20260903022335 79 15 0.0 0.0 0.00 0.00 0.00 85 1019.7
20260903021834 79 14 0.0 0.0 0.00 0.00 0.00 85 1019.6
20260903021330 79 15 0.0 0.0 0.00 0.00 0.00 84 1019.4
20260903020830 79 15 0.0 0.0 0.00 0.00 0.00 84 1019.5
20260903020325 79 11 0.0 0.0 0.00 0.00 0.00 84 1019.4
20260903015819 79 13 0.0 0.0 0.00 0.00 0.00 84 1019.5
20260903015315 80 13 0.0 0.0 0.00 0.00 0.00 84 1019.5
20260903014810 80 13 0.0 0.0 0.00 0.00 0.00 84 1019.6
20260903014310 80 13 0.0 0.0 0.00 0.00 0.00 84 1019.5
20260903013805 80 13 0.0 0.0 0.00 0.00 0.00 83 1019.5
20260903013303 80 13 0.0 0.0 0.00 0.00 0.00 83 1019.7
20260903012803 80 13 0.0 0.0 0.00 0.00 0.00 83 1019.6
20260903012258 80 13 0.0 0.0 0.00 0.00 0.00 82 1019.4
20260903011757 81 13 0.0 0.0 0.00 0.00 0.00 82 1019.5
20260903011256 81 14 0.0 0.0 0.00 0.00 0.00 82 1019.5
20260903010752 81 14 0.0 0.0 0.00 0.00 0.00 81 1019.3
20260903010247 81 14 0.0 0.0 0.00 0.00 0.00 80 1019.2
20260903005746 82 14 0.0 0.0 0.00 0.00 0.00 80 1019.2
20260903005241 82 14 0.0 0.0 0.00 0.00 0.00 79 1019.1
20260903004736 82 14 0.0 0.0 0.00 0.00 0.00 79 1019.1
20260903004232 82 14 0.0 0.0 0.00 0.00 0.00 78 1019.2
20260903003727 83 14 0.0 0.0 0.00 0.00 0.00 77 1019.0
20260903003223 83 14 0.0 0.0 0.00 0.00 0.00 76 1019.2
20260903002717 84 14 0.0 0.0 0.00 0.00 0.00 75 1018.9
20260903002211 84 14 0.0 0.0 0.00 0.00 0.00 75 1018.9
20260903001707 84 14 0.0 0.0 0.00 0.00 0.00 73 1018.8
20260903001200 85 14 0.0 0.0 0.00 0.00 0.00 72 1019.0
20260903000650 85 14 0.0 0.0 0.00 0.00 0.00 71 1018.9
20260903000144 86 14 0.0 0.0 0.00 0.00 0.00 70 1018.9
20260902235642 86 14 0.0 0.0 0.00 0.00 0.00 69 1018.8
20260902235132 87 15 0.0 0.0 0.00 0.00 0.00 69 1018.9
20260902234626 87 15 0.0 0.0 0.00 0.00 0.00 68 1019.1
20260902234124 88 15 0.0 0.0 0.00 0.00 0.00 67 1018.9
20260902233619 88 14 0.0 0.0 0.00 0.00 0.00 65 1018.7
20260902233114 89 15 0.0 0.0 0.00 0.00 0.00 65 1018.8
20260902232608 90 15 0.0 0.0 0.00 0.00 0.00 63 1018.9
20260902232102 90 15 0.0 0.0 0.00 0.00 0.00 62 1018.9
20260902231601 91 13 0.0 0.9 0.00 0.00 0.00 61 1019.0
20260902231056 91 12 0.0 0.9 0.00 0.00 0.00 60 1018.9
20260902230551 91 13 0.0 0.0 0.00 0.00 0.00 59 1019.0
20260902230050 92 12 0.9 0.9 0.00 0.00 0.00 58 1019.1
20260902225546 92 19 0.0 0.0 0.00 0.00 0.00 58 1019.0
20260902225044 93 11 0.9 0.9 0.00 0.00 0.00 56 1018.8
20260902224543 93 10 0.9 0.9 0.00 0.00 0.00 55 1018.8
20260902224039 93 10 0.9 1.7 0.00 0.00 0.00 55 1019.0
20260902223536 93 14 0.0 0.9 0.00 0.00 0.00 55 1019.0
20260902223034 94 13 0.9 1.7 0.00 0.00 0.00 54 1019.0
20260902222533 94 15 0.0 1.7 0.00 0.00 0.00 54 1019.0
20260902222032 94 12 0.0 1.7 0.00 0.00 0.00 54 1019.0
20260902221527 93 10 0.9 0.9 0.00 0.00 0.00 54 1019.0
20260902221023 94 318 0.9 1.7 0.00 0.00 0.00 53 1019.1
20260902220518 94 1 1.7 1.7 0.00 0.00 0.00 52 1019.2
20260902220012 94 9 0.9 0.9 0.00 0.00 0.00 54 1019.1
20260902215508 94 5 1.7 1.7 0.00 0.00 0.00 52 1018.9
20260902215004 94 41 0.9 4.3 0.00 0.00 0.00 52 1018.9
20260902214503 95 11 0.0 0.9 0.00 0.00 0.00 52 1019.0
20260902214002 95 16 0.0 0.9 0.00 0.00 0.00 51 1019.3
20260902213458 95 9 0.9 1.7 0.00 0.00 0.00 54 1019.1
20260902212956 95 323 1.7 2.6 0.00 0.00 0.00 52 1019.2
20260902212452 95 358 1.7 1.7 0.00 0.00 0.00 51 1019.0
20260902211949 95 20 1.7 2.6 0.00 0.00 0.00 52 1019.2
20260902211445 95 6 0.9 1.7 0.00 0.00 0.00 53 1019.2
20260902210945 95 21 0.9 2.6 0.00 0.00 0.00 52 1019.2
20260902210440 95 11 1.7 2.6 0.00 0.00 0.00 51 1019.2
20260902205938 95 18 0.9 2.6 0.00 0.00 0.00 52 1019.3
20260902205433 95 14 0.0 1.7 0.00 0.00 0.00 52 1019.3
20260902204929 95 222 1.7 2.6 0.00 0.00 0.00 52 1019.5
20260902204428 95 13 0.9 1.7 0.00 0.00 0.00 53 1019.2
20260902203924 95 15 0.0 0.9 0.00 0.00 0.00 52 1019.4
20260902203419 95 13 0.0 1.7 0.00 0.00 0.00 54 1019.4
20260902202918 95 12 2.6 2.6 0.00 0.00 0.00 51 1019.5
20260902202414 95 12 0.9 1.7 0.00 0.00 0.00 52 1019.5
20260902201911 95 12 0.0 0.9 0.00 0.00 0.00 53 1019.5
20260902201411 96 8 0.9 1.7 0.00 0.00 0.00 51 1019.7
20260902200905 96 6 0.9 4.3 0.00 0.00 0.00 51 1019.6
20260902200401 96 10 0.9 0.9 0.00 0.00 0.00 53 1019.6
20260902195856 96 8 0.0 0.9 0.00 0.00 0.00 49 1019.7
20260902195356 96 15 0.0 1.7 0.00 0.00 0.00 50 1019.8
20260902194851 96 4 1.7 2.6 0.00 0.00 0.00 50 1020.0
20260902194345 96 12 0.0 0.9 0.00 0.00 0.00 50 1019.8
20260902193840 96 28 1.7 2.6 0.00 0.00 0.00 48 1020.0
20260902193336 96 5 0.9 1.7 0.00 0.00 0.00 49 1020.1
20260902192835 96 351 0.9 1.7 0.00 0.00 0.00 50 1020.3
20260902192333 96 343 0.9 1.7 0.00 0.00 0.00 48 1020.1
20260902191828 96 2 1.7 2.6 0.00 0.00 0.00 50 1020.2
20260902191324 96 352 2.6 2.6 0.00 0.00 0.00 48 1020.4
20260902190819 96 340 1.7 2.6 0.00 0.00 0.00 47 1020.3
20260902190318 97 352 0.9 2.6 0.00 0.00 0.00 48 1020.5
20260902185814 97 51 1.7 1.7 0.00 0.00 0.00 49 1020.2
20260902185309 96 359 0.9 1.7 0.00 0.00 0.00 50 1020.3
20260902184805 96 323 0.9 1.7 0.00 0.00 0.00 47 1020.3
20260902184300 96 359 0.9 1.7 0.00 0.00 0.00 51 1020.6
20260902183755 95 351 2.6 5.2 0.00 0.00 0.00 51 1020.5
20260902183252 96 358 0.9 2.6 0.00 0.00 0.00 49 1020.6
20260902182748 96 5 0.9 1.7 0.00 0.00 0.00 50 1020.5
20260902182244 96 353 1.7 1.7 0.00 0.00 0.00 50 1020.5
20260902181740 96 296 1.7 1.7 0.00 0.00 0.00 54 1020.9
20260902181240 96 2 0.0 1.7 0.00 0.00 0.00 52 1021.0
20260902180734 96 24 0.0 1.7 0.00 0.00 0.00 50 1020.8
20260902180230 96 5 0.9 1.7 0.00 0.00 0.00 52 1020.9
20260902175725 96 6 0.0 4.3 0.00 0.00 0.00 53 1021.1
20260902175221 96 13 0.0 0.0 0.00 0.00 0.00 56 1021.1
20260902174717 96 354 1.7 2.6 0.00 0.00 0.00 54 1021.0
20260902174213 95 353 0.9 1.7 0.00 0.00 0.00 53 1021.0
20260902173708 95 357 0.0 1.7 0.00 0.00 0.00 54 1021.0
20260902173202 95 20 0.0 0.9 0.00 0.00 0.00 54 1021.1
20260902172657 94 6 0.9 4.3 0.00 0.00 0.00 56 1021.1
20260902172156 94 359 0.0 1.7 0.00 0.00 0.00 56 1021.2
20260902171651 94 7 0.9 0.9 0.00 0.00 0.00 54 1021.2
20260902171147 94 4 2.6 4.3 0.00 0.00 0.00 54 1021.4
20260902170642 94 6 0.9 1.7 0.00 0.00 0.00 56 1021.4
20260902170137 95 8 0.9 2.6 0.00 0.00 0.00 55 1021.2
20260902165633 94 11 0.0 0.9 0.00 0.00 0.00 57 1021.4
20260902165127 94 1 0.9 1.7 0.00 0.00 0.00 55 1021.3
20260902164622 93 8 0.9 1.7 0.00 0.00 0.00 58 1021.3
20260902164121 93 7 0.0 1.7 0.00 0.00 0.00 57 1021.6
20260902163616 93 9 0.9 0.9 0.00 0.00 0.00 57 1021.6
20260902163115 93 16 0.9 1.7 0.00 0.00 0.00 58 1021.9
20260902162614 93 337 0.9 1.7 0.00 0.00 0.00 57 1021.7
20260902162109 93 333 0.9 1.7 0.00 0.00 0.00 57 1021.8
20260902161603 93 13 0.0 1.7 0.00 0.00 0.00 60 1021.8
20260902161100 92 11 0.9 1.7 0.00 0.00 0.00 61 1022.0
20260902160550 92 17 0.9 2.6 0.00 0.00 0.00 59 1021.9
20260902160045 92 7 0.0 1.7 0.00 0.00 0.00 60 1021.9
20260902155538 92 10 0.0 0.9 0.00 0.00 0.00 61 1021.9
20260902155037 91 6 0.9 1.7 0.00 0.00 0.00 62 1021.8
20260902154532 91 0 0.9 1.7 0.00 0.00 0.00 61 1021.7
20260902154027 91 10 0.0 2.6 0.00 0.00 0.00 62 1021.8
20260902153526 91 6 0.0 0.9 0.00 0.00 0.00 62 1021.9
20260902153021 91 6 0.9 1.7 0.00 0.00 0.00 62 1022.0
20260902152518 91 353 0.9 1.7 0.00 0.00 0.00 61 1022.0
20260902152013 91 0 1.7 1.7 0.00 0.00 0.00 62 1022.0
20260902151509 91 356 0.9 1.7 0.00 0.00 0.00 62 1022.0
20260902151008 91 359 0.0 1.7 0.00 0.00 0.00 63 1022.0
20260902150503 90 1 1.7 1.7 0.00 0.00 0.00 64 1022.2
20260902145958 89 8 0.9 1.7 0.00 0.00 0.00 65 1022.0
20260902145453 89 3 0.0 1.7 0.00 0.00 0.00 65 1022.1
20260902144948 89 4 0.9 0.9 0.00 0.00 0.00 65 1021.9
20260902144444 88 16 0.0 2.6 0.00 0.00 0.00 67 1022.0
20260902143938 88 2 0.0 1.7 0.00 0.00 0.00 67 1022.1
20260902143434 88 8 0.0 5.2 0.00 0.00 0.00 67 1021.9
20260902142928 88 1 0.9 2.6 0.00 0.00 0.00 69 1022.1
20260902142424 88 7 0.9 1.7 0.00 0.00 0.00 69 1021.9
20260902141919 87 4 0.0 1.7 0.00 0.00 0.00 70 1021.9
20260902141415 86 11 0.0 1.7 0.00 0.00 0.00 72 1021.9
20260902140914 86 13 0.9 1.7 0.00 0.00 0.00 71 1022.0
20260902140410 86 4 0.9 0.9 0.00 0.00 0.00 73 1022.0
20260902135904 86 354 0.0 0.0 0.00 0.00 0.00 73 1021.6
20260902135400 85 2 0.0 0.9 0.00 0.00 0.00 74 1021.9
20260902134858 84 7 0.0 0.9 0.00 0.00 0.00 75 1022.0
20260902134358 84 6 0.0 1.7 0.00 0.00 0.00 76 1022.0
20260902133843 83 358 0.9 1.7 0.00 0.00 0.00 78 1021.7
20260902133343 82 10 0.0 0.9 0.00 0.00 0.00 80 1021.7
20260902132838 82 2 0.0 0.9 0.00 0.00 0.00 81 1021.7
20260902132333 81 7 0.0 0.9 0.00 0.00 0.00 81 1021.7
20260902131829 80 5 0.0 0.9 0.00 0.00 0.00 82 1022.1
20260902131326 80 4 0.9 0.9 0.00 0.00 0.00 83 1021.7
20260902130825 79 357 0.0 0.9 0.00 0.00 0.00 84 1021.9
20260902130321 78 347 0.9 0.9 0.00 0.00 0.00 85 1021.6
20260902125816 78 339 0.9 0.9 0.00 0.00 0.00 86 1021.8
20260902125312 77 7 0.0 0.9 0.00 0.00 0.00 87 1021.9
20260902124808 77 7 0.0 0.9 0.00 0.00 0.00 88 1021.8
20260902124304 76 32 0.9 0.9 0.00 0.00 0.00 88 1021.7
20260902123804 76 336 0.9 0.9 0.00 0.00 0.00 89 1021.5
20260902123300 75 356 0.0 0.9 0.00 0.00 0.00 90 1021.5
20260902122758 74 5 0.0 0.9 0.00 0.00 0.00 92 1021.5
20260902122254 74 356 0.0 0.0 0.00 0.00 0.00 92 1021.5
20260902121748 73 355 0.0 0.0 0.00 0.00 0.00 93 1021.5
20260902121243 73 357 0.0 0.0 0.00 0.00 0.00 94 1021.5
20260902120738 73 356 0.0 0.0 0.00 0.00 0.00 95 1021.8
20260902120235 72 355 0.0 0.0 0.00 0.00 0.00 96 1021.6
20260902115730 72 357 0.0 0.0 0.00 0.00 0.00 96 1021.4
20260902115226 72 357 0.0 0.0 0.00 0.00 0.00 97 1021.3
20260902114722 71 359 0.0 0.0 0.00 0.00 0.00 97 1021.6
20260902114217 71 357 0.0 0.0 0.00 0.00 0.00 97 1021.2
20260902113711 71 356 0.0 0.0 0.00 0.00 0.00 97 1021.4
20260902113207 71 356 0.0 0.0 0.00 0.00 0.00 97 1021.2
20260902112701 71 356 0.0 0.0 0.00 0.00 0.00 96 1021.2
20260902112159 71 356 0.0 0.0 0.00 0.00 0.00 96 1021.3
20260902111654 71 356 0.0 0.0 0.00 0.00 0.00 96 1021.4
20260902111149 71 356 0.0 0.0 0.00 0.00 0.00 96 1021.2
20260902110645 71 356 0.0 0.0 0.00 0.00 0.00 96 1021.1
20260902110141 71 356 0.0 0.0 0.00 0.00 0.00 96 1021.1
20260902105640 71 355 0.0 0.0 0.00 0.00 0.00 96 1021.2
20260902105136 71 357 0.0 0.0 0.00 0.00 0.00 96 1021.2
20260902104631 71 357 0.0 0.0 0.00 0.00 0.00 96 1021.2
20260902104126 71 357 0.0 0.0 0.00 0.00 0.00 96 1021.2
20260902103626 71 357 0.0 0.0 0.00 0.00 0.00 96 1021.1
20260902103121 71 357 0.0 0.0 0.00 0.00 0.00 95 1021.0
20260902102617 72 357 0.0 0.0 0.00 0.00 0.00 95 1021.3
20260902102114 72 357 0.0 0.0 0.00 0.00 0.00 95 1021.1
20260902101609 72 357 0.0 0.0 0.00 0.00 0.00 95 1021.2
20260902101109 72 357 0.0 0.0 0.00 0.00 0.00 95 1021.0
20260902100603 72 356 0.0 0.0 0.00 0.00 0.00 95 1021.1
20260902100058 72 356 0.0 0.0 0.00 0.00 0.00 95 1021.0
20260902095557 72 349 0.0 0.0 0.00 0.00 0.00 95 1020.9
20260902095056 72 358 0.0 0.9 0.00 0.00 0.00 95 1021.1
20260902094547 72 346 0.0 0.0 0.00 0.00 0.00 96 1021.2
20260902094042 72 8 0.0 0.0 0.00 0.00 0.00 96 1020.9
20260902093536 72 6 0.0 0.0 0.00 0.00 0.00 96 1021.1
20260902093031 72 5 0.0 0.0 0.00 0.00 0.00 96 1021.1
20260902092526 72 4 0.0 0.0 0.00 0.00 0.00 96 1021.1
20260902092021 72 4 0.0 0.0 0.00 0.00 0.00 96 1021.1
20260902091516 72 4 0.0 0.0 0.00 0.00 0.00 96 1021.0
20260902091012 72 4 0.0 0.0 0.00 0.00 0.00 96 1021.0
20260902090508 72 3 0.0 0.0 0.00 0.00 0.00 96 1021.0
20260902090007 72 8 0.0 0.0 0.00 0.00 0.00 96 1021.0
20260902085502 72 13 0.0 0.0 0.00 0.00 0.00 96 1020.9
20260902084956 72 13 0.0 0.0 0.00 0.00 0.00 96 1020.9
20260902084453 72 13 0.0 0.0 0.00 0.00 0.00 96 1021.0
20260902083949 72 13 0.0 0.0 0.00 0.00 0.00 96 1020.6
20260902083448 72 13 0.0 0.0 0.00 0.00 0.00 96 1020.4
20260902082943 72 13 0.0 0.0 0.00 0.00 0.00 95 1020.6
20260902082439 72 13 0.0 0.0 0.00 0.00 0.00 95 1020.5
20260902081935 72 13 0.0 0.0 0.00 0.00 0.00 95 1020.6
20260902081431 72 13 0.0 0.0 0.00 0.00 0.00 95 1020.5
20260902080926 72 13 0.0 0.0 0.00 0.00 0.00 95 1020.8
20260902080422 72 13 0.0 0.0 0.00 0.00 0.00 95 1020.5
20260902075922 72 13 0.0 0.0 0.00 0.00 0.00 94 1020.2
20260902075418 72 13 0.0 0.0 0.00 0.00 0.00 94 1020.4
20260902074913 72 13 0.0 0.0 0.00 0.00 0.00 94 1020.4
20260902074409 72 13 0.0 0.0 0.00 0.00 0.00 94 1020.3
20260902073903 72 13 0.0 0.0 0.00 0.00 0.00 94 1020.2
20260902073400 72 10 0.0 0.0 0.00 0.00 0.00 94 1020.3
20260902072855 72 9 0.0 0.0 0.00 0.00 0.00 94 1020.4
20260902072351 72 9 0.0 0.0 0.00 0.00 0.00 94 1020.3
20260902071848 72 9 0.0 0.0 0.00 0.00 0.00 94 1020.2
20260902071347 72 9 0.0 0.0 0.00 0.00 0.00 93 1020.1
20260902070843 73 9 0.0 0.0 0.00 0.00 0.00 93 1020.0
20260902070338 73 9 0.0 0.0 0.00 0.00 0.00 93 1020.1
20260902065836 73 9 0.0 0.0 0.00 0.00 0.00 93 1020.1
20260902065332 73 9 0.0 0.0 0.00 0.00 0.00 93 1020.0
20260902064827 73 9 0.0 0.0 0.00 0.00 0.00 93 1020.0
20260902064323 73 9 0.0 0.0 0.00 0.00 0.00 93 1020.1
20260902063818 73 9 0.0 0.0 0.00 0.00 0.00 93 1019.9
20260902063312 73 9 0.0 0.0 0.00 0.00 0.00 92 1019.9
20260902062807 73 9 0.0 0.0 0.00 0.00 0.00 92 1020.1
20260902062305 74 9 0.0 0.0 0.00 0.00 0.00 92 1019.8
20260902061801 74 9 0.0 0.0 0.00 0.00 0.00 92 1019.9
20260902061256 74 9 0.0 0.0 0.00 0.00 0.00 92 1019.9
20260902060754 74 9 0.0 0.0 0.00 0.00 0.00 92 1019.9